sat.trackr.live / text

‹ back to catalog

STARLINK-11473 [DTC]

NORAD 62060 · 2024-217D

PAYLOAD ACTIVE UNKNOWN

§ Identity

Operator
Country
US
Launch date
2024-11-24
Launch site
AFWTR
Launch vehicle
Mass (kg)
RCS (m²)

Purposes: comms

External: N2YO · Heavens-Above · Gunter

§ Orbital elements

Epoch: 2026-05-25T04:17:08.543040Z

Period
91.73 min
Inclination
53.1565°
Eccentricity
0.0000941
Mean motion
15.69790094 rev/d
Perigee alt
358.9 km
Apogee alt
360.1 km
Semi-major
6,737.6 km
B*
1.9591e-3
RAAN
54.4398°
Arg perigee
109.4467°
Mean anomaly
250.6652°
Rev number
8,718

§ Raw data

STARLINK-11473 [DTC]1 62060U 24217D   26145.17857110  .00244699  00000+0  19591-2 0  99982 62060  53.1565  54.4398 0000941 109.4467 250.6652 15.69790094 87189

JSON: /api/v1/satellites/62060 · /tle

For live sub-satellite position, see the globe view (requires WebGL).

§ Visibility from observer

Set your observer location to see the next 7 days of passes ≥ 10°. The values pass through the URL so the page stays shareable.

No JS? Fill the form by hand. The geolocation button needs JavaScript.